[ ตารางข้อมูล ] [ Min-Max ] [ วันนี้2 ] [ วันนี้4 ] [ เทียบ-A 3วัน ] [ เทียบ-B 4วัน ]   

วันนี้4   [ ◀ ช่วงเก่ากว่า ] [ ช่วงที่ 45 ] [ ช่วงใหม่กว่า ▶ ] [ ล่าสุด ]    [ 3 ชั่วโมง ] [ 6 ชั่วโมง ] [ 12 ชั่วโมง ] [ 24 ชั่วโมง ]   วันนี้4

อุณภูมิในตู้ Knockdown4529  ราย 24 ชั่วโมง  ที่วัดได้ ในช่วงวันเวลา 19/07/2026 (21:38) ถึง 20/07/2026 (21:38) 
ความชื้นในตู้ Knockdown4529  ราย 24 ชั่วโมง  ที่วัดได้ ในช่วงวันเวลา 19/07/2026 (21:38) ถึง 20/07/2026 (21:38) 
การใช้ไฟฟ้าในตู้ Knockdown4529  ราย 24 ชั่วโมง  ที่วัดได้ ในช่วงวันเวลา 19/07/2026 (21:38) ถึง 20/07/2026 (21:38) 

  DS18B20SHTC3PZEM-004TWiFi 
IDDate d/m/Y & Timedata1
สูง
data2
ต่ำ
data3
นอก
temp
pcb
hum
pcb
VoltAmpWattrssiTime
 5034  20/07/2026 21:37:06  29.8  29.6  27.4  30.7  67.0  229.9  0.04  4.6  -78  21:37 
 5033  20/07/2026 21:32:23  29.8  29.6  27.4  30.7  66.9  229.5  0.04  4.6  -79  21:32 
 5032  20/07/2026 21:27:41  29.8  29.7  27.3  30.7  66.9  229.2  0.04  4.6  -81  21:27 
 5031  20/07/2026 21:22:57  29.8  29.7  27.3  30.7  67.0  229.8  0.04  4.6  -80  21:22 
 5030  20/07/2026 21:18:14  29.8  29.7  27.3  30.8  67.1  228.4  0.04  4.6  -81  21:18 
 5029  20/07/2026 21:13:31  29.9  29.8  27.4  30.8  66.8  230.7  0.04  4.6  -81  21:13 
 5028  20/07/2026 21:08:48  29.9  29.8  27.4  30.9  67.0  229.1  0.04  4.6  -82  21:08 
 5027  20/07/2026 21:04:05  29.9  29.8  27.5  30.9  66.8  228.6  0.04  4.6  -81  21:04 
 5026  20/07/2026 20:59:21  29.9  29.8  27.5  31.0  66.8  228.8  0.04  4.6  -80  20:59 
 5025  20/07/2026 20:54:39  30.0  29.8  27.4  31.0  66.8  228.0  0.04  4.6  -79  20:54 
 5024  20/07/2026 20:49:55  30.0  29.9  27.5  31.0  66.8  228.3  0.04  4.6  -79  20:49 
 5023  20/07/2026 20:45:11  30.0  29.9  27.5  31.0  66.7  228.4  0.04  4.6  -79  20:45 
 5022  20/07/2026 20:40:28  30.1  29.9  27.6  31.1  66.7  226.3  0.04  4.6  -80  20:40 
 5021  20/07/2026 20:35:45  30.1  29.9  27.7  31.1  66.8  226.1  0.04  4.6  -80  20:35 
 5020  20/07/2026 20:31:02  30.1  30.0  27.7  31.1  66.7  225.5  0.04  4.6  -79  20:31 
 5019  20/07/2026 20:26:18  30.1  30.0  27.5  31.2  66.7  227.1  0.04  4.6  -82  20:26 
 5018  20/07/2026 20:21:34  30.2  30.1  27.4  31.2  66.6  227.2  0.04  4.6  -80  20:21 
 5017  20/07/2026 20:16:50  30.2  30.1  27.4  31.1  66.6  225.1  0.04  4.6  -81  20:16 
 5016  20/07/2026 20:12:09  30.2  30.1  27.4  31.1  66.6  225.9  0.04  4.6  -78  20:12 
 5015  20/07/2026 20:07:25  30.3  30.1  27.4  31.4  66.5  226.4  0.04  4.6  -81  20:07 
 5014  20/07/2026 20:02:42  30.3  30.2  27.5  31.3  66.5  228.2  0.04  4.6  -82  20:02 
 5013  20/07/2026 19:57:58  30.4  30.2  27.4  31.4  66.6  228.0  0.04  4.6  -81  19:57 
 5012  20/07/2026 19:53:13  30.4  30.2  27.4  31.4  66.5  227.8  0.04  4.6  -80  19:53 
 5011  20/07/2026 19:48:29  30.4  30.3  27.5  31.4  66.4  228.9  0.04  4.6  -81  19:48 

Data every 5 minute.


ใช้เวลาประมวลผล 0.03513 วินาที